Location: Whispering Pines Observatory
(39.4020°N, 104.7430°W)
Time: 14:43:40
(UTC-06:00)

MOS 1 Rocket - Visible Passes

Search period start: 26 September 2016 00:00
Search period end: 06 October 2016 00:00
Orbit: 614 x 833 km, 97.4° (Epoch: 26 September)

Date Brightness Start Highest point End Pass type
(mag) Time Alt. Az. Time Alt. Az. Time Alt. Az.
26 Sep 3.8 05:31:17 10° NNE 05:36:03 68° E 05:41:06 10° S visible
27 Sep 5.8 04:43:11 10° NE 04:46:57 22° E 04:50:51 10° SE visible
27 Sep 3.9 06:20:49 10° N 06:25:15 39° WNW 06:29:56 10° SW visible
28 Sep 3.7 05:31:34 10° NNE 05:36:24 70° E 05:41:32 10° S visible
29 Sep 5.7 04:43:25 10° NE 04:47:19 23° E 04:51:22 10° SSE visible
29 Sep 4.0 06:21:07 10° N 06:25:36 38° WNW 06:30:19 10° SW visible
30 Sep 3.7 05:31:51 10° NNE 05:36:46 72° ESE 05:41:57 10° S visible
01 Oct 5.7 04:43:40 10° NE 04:47:41 24° E 04:51:50 10° SSE visible
01 Oct 4.0 06:21:26 10° N 06:25:58 37° WNW 06:30:42 10° SW visible
02 Oct 3.7 05:32:09 10° NNE 05:37:09 74° ESE 05:42:23 10° S visible
03 Oct 5.7 04:43:56 10° NE 04:48:04 25° E 04:52:20 10° SSE visible
03 Oct 4.1 06:21:45 10° N 06:26:19 37° WNW 06:31:05 10° SW visible
04 Oct 3.7 05:32:28 10° NNE 05:37:31 76° ESE 05:42:48 10° S visible
05 Oct 5.6 04:44:12 10° NE 04:48:26 26° E 04:52:49 10° SSE visible
05 Oct 4.1 06:22:05 10° N 06:26:41 36° WNW 06:31:28 10° SW visible
